Location: Hanmanchip?lem
(16.7885°N, 80.2575°E)
Time: 05:42:28
(UTC+00:00)

Daily predictions for brighter satellites

Satellite Brightness Start Highest point End
(mag) Time Altitude Azimuth Time Altitude Azimuth Time Altitude Azimuth
Gbstr 26 Del rocket 4.4 00:00:01 10° WNW 00:04:27 25° WSW 00:08:16 10° S
ERS-2 3.8 00:03:37 10° WNW 00:04:28 11° WNW 00:05:20 10° W
CZ-2C R/B 3.5 00:01:39 10° NNE 00:05:19 56° E 00:08:55 10° S
Cosmos 1745 Rocket 4.2 00:00:56 10° SSW 00:06:55 50° W 00:13:00 10° N
Cosmos 1939 Rocket 4.2 00:07:18 10° NNW 00:10:03 19° WNW 00:12:50 10° WSW
Cosmos 2219 Rocket 2.4 00:06:51 10° NNW 00:12:31 84° ENE 00:18:11 10° SSE
